Weather observations for the past three days for
Marquette Sawyer Regional Airport
Imperial (Metric)
Date Time (edt) Wind (mph) Vis. (mi.) Weather Sky Cond. Temperature (ºF) Relative Humidity Wind Chill (°F) Heat Index (°F) Pressure Precipitation (in)
Air Dwpt 6 hour altimeter (in) sea level (mb) 1 hr 3 hr 6 hr
Max. Min.
31 10:47 S 9 10.00 Overcast OVC003 69.8 68 94% 29.89 0.0
31 09:47 S 9 6.00 Fog/Mist OVC001 68 68 100% 29.89 0.0
31 08:47 S 8 3.00 Fog/Mist OVC001 66.2 66.2 100% 29.9 0.0
31 07:47 S 9 3.00 Fog/Mist OVC001 64.4 64.4 100% 29.9 0.0
31 06:47 S 10 0.50 Thunderstorm in Vicinity Fog VV005 64.4 64.4 100% 29.91 0.0
31 05:58 S 6 0.50 Fog VV005 64.4 64.4 100% 29.91 0.0
31 05:38 SE 7 0.75 Fog/Mist BKN001 64.4 64.4 100% 29.91 0.0
31 05:18 S 8 3.00 Fog/Mist OVC001 64.4 64.4 100% 29.92 0.0
31 04:58 S 8 6.00 Light Rain Fog/Mist OVC003 64.4 64.4 100% 29.94 0.0
31 04:38 S 10 7.00 Light Rain Fog/Mist OVC003 64.4 64.4 100% 29.94 0.0
31 04:18 S 9 7.00 Light Rain Fog/Mist OVC003 64.4 64.4 100% 29.95 0.0
31 03:58 S 8 2.50 Thunderstorm Light Rain Fog/Mist OVC003 64.4 64.4 100% 29.95 0.0
31 03:38 E 6 1.50 Heavy Rain Fog/Mist OVC001 64.4 64.4 100% 29.96 0.0
31 03:18 SE 6 1.75 Fog/Mist OVC001 64.4 64.4 100% 29.96 0.0
31 02:58 SE 7 2.50 Fog/Mist OVC001 64.4 64.4 100% 29.98 0.0
31 02:38 S 7 4.00 Fog/Mist OVC001 64.4 64.4 100% 29.98 0.0
31 02:18 SE 5 4.00 Thunderstorm in Vicinity Fog/Mist OVC001 64.4 64.4 100% 29.97 0.0
31 01:58 SE 3 4.00 Thunderstorm in Vicinity Fog/Mist OVC001 64.4 64.4 100% 29.97 0.0
31 01:38 S 8 4.00 Fog/Mist OVC001 64.4 64.4 100% 29.99 0.0
31 01:18 S 8 3.00 Fog/Mist OVC001 64.4 64.4 100% 29.99 0.0
31 00:38 SE 6 3.00 Fog/Mist OVC001 64.4 64.4 100% 29.98 0.0
31 00:18 SE 5 2.50 Fog/Mist BKN001 64.4 64.4 100% 29.98 0.0
30 23:58 S 6 1.00 Fog/Mist CLR 64.4 64.4 100% 29.98 0.0
30 23:38 S 7 0.50 Fog VV005 64.4 64.4 100% 29.98 0.0
30 23:18 S 7 0.50 Fog VV005 64.4 64.4 100% 29.99 0.0
30 22:58 SE 5 1.00 Fog/Mist CLR 64.4 64.4 100% 29.99 0.0
30 22:38 SE 5 1.25 Fog/Mist SCT001 64.4 64.4 100% 29.98 0.0
30 22:18 SE 8 2.00 Fog/Mist OVC001 64.4 64.4 100% 29.98 0.0
30 21:49 SE 6 3.00 Fog/Mist OVC001 66.2 66.2 100% 29.98 0.0
30 20:50 SE 8 1.50 Fog/Mist OVC003 66.2 66.2 100% 29.96 0.0
30 19:50 E 5 10.00 Overcast OVC005 66.2 66.2 100% 29.97 0.0
30 18:51 E 7 10.00 Overcast OVC005 68 66.2 94% 29.96 0.0
30 16:50 NE 8 10.00 Fog/Mist OVC007 68 64.4 88% 29.96 0.0
30 15:50 NE 7 10.00 Overcast OVC009 68 64.4 88% 29.96 0.0
30 14:50 NE 6 10.00 Overcast OVC010 68 64.4 88% 29.97 0.0
30 13:50 NE 7 10.00 Overcast OVC014 69.8 64.4 83% 29.96 0.0
30 12:50 E 7 10.00 Overcast OVC014 68 64.4 88% 29.97 0.0
30 11:47 NE 12 8.00 Overcast OVC010 68 64.4 88% 29.96 0.0
30 10:47 E 7 3.00 Fog/Mist OVC001 64.4 64.4 100% 29.96 0.0
30 09:47 NE 7 0.15 Sky Obscured VV000 64.4 64.4 100% 29.96 0.0
30 08:47 NE 9 0.15 Fog VV000 62.6 62.6 100% 29.96 0.0
30 07:47 NE 5 0.15 Fog VV000 62.6 62.6 100% 29.95 0.0
30 06:47 NE 3 0.50 Fog VV005 62.6 62.6 100% 29.94 0.0
30 05:58 E 3 4.00 Fog/Mist OVC001 64.4 64.4 100% 29.94 0.0
30 05:38 SE 3 6.00 Fog/Mist OVC001 64.4 64.4 100% 29.94 0.0
30 05:18 E 5 6.00 Fog/Mist OVC001 62.6 62.6 100% 29.94 0.0
30 04:58 SE 6 7.00 Fog/Mist OVC001 62.6 62.6 100% 29.95 0.0
30 04:38 SE 6 9.00 Overcast OVC001 62.6 62.6 100% 29.95 0.0
30 04:18 SE 6 8.00 Overcast OVC001 62.6 62.6 100% 29.95 0.0
30 03:58 SE 8 9.00 Overcast OVC001 62.6 62.6 100% 29.95 0.0
30 03:38 SE 6 5.00 Fog/Mist OVC001 62.6 62.6 100% 29.96 0.0
30 03:18 SE 6 3.00 Light Drizzle Fog/Mist OVC001 62.6 62.6 100% 29.97 0.0
30 02:58 S 6 4.00 Fog/Mist OVC001 62.6 62.6 100% 29.97 0.0
30 02:38 SE 6 4.00 Fog/Mist OVC001 62.6 62.6 100% 29.98 0.0
30 02:18 S 7 5.00 Fog/Mist OVC003 62.6 62.6 100% 29.98 0.0
30 01:58 S 6 10.00 Overcast OVC003 62.6 60.8 94% 29.99 0.0
30 01:38 S 6 10.00 Overcast BKN005 OVC043 60.8 60.8 100% 30 0.0
30 01:18 S 8 10.00 Overcast SCT003 BKN008 OVC043 60.8 60.8 100% 30 0.0
30 00:58 S 7 10.00 Overcast SCT003 SCT032 OVC043 60.8 60.8 100% 30 0.0
30 00:38 S 6 10.00 Overcast FEW003 OVC039 60.8 60.8 100% 30 0.0
30 00:18 S 6 10.00 Overcast OVC039 60.8 60.8 100% 30 0.0
29 23:58 S 5 10.00 Mostly Cloudy BKN041 BKN110 60.8 60.8 100% 30 0.0
29 23:38 S 7 10.00 Mostly Cloudy SCT050 BKN110 60.8 60.8 100% 30 0.0
29 23:18 S 7 10.00 Overcast SCT043 BKN050 OVC110 62.6 60.8 94% 30 0.0
29 22:58 S 10 10.00 Overcast SCT010 SCT026 OVC041 62.6 60.8 94% 30 0.0
29 22:38 S 12 10.00 Overcast BKN010 OVC025 62.6 60.8 94% 30 0.0
29 22:18 S 12 10.00 Mostly Cloudy BKN010 BKN016 62.6 60.8 94% 30 0.0
29 21:45 S 10 10.00 Overcast OVC010 64.4 62.6 94% 30 0.0
29 20:45 SW 14 10.00 Overcast SCT015 BKN020 OVC110 66.2 64.4 94% 29.99 0.0
29 19:45 S 8 10.00 Mostly Cloudy FEW039 BKN095 66.2 64.4 94% 29.99 0.0
29 18:45 SW 7 10.00 Overcast FEW060 SCT075 OVC085 66.2 66.2 100% 29.99 0.0
29 17:45 SW 7 10.00 Overcast BKN021 OVC033 66.2 64.4 94% 30 0.0
29 16:45 S 9 10.00 Overcast OVC060 68 64.4 88% 29.99 0.0
29 15:45 S 10 10.00 Overcast BKN070 OVC090 66.2 64.4 94% 30 0.0
29 14:45 S 9 6.00 Light Rain Haze SCT060 BKN070 OVC090 66.2 60.8 83% 30.02 0.0
29 13:45 SW 6 10.00 Overcast FEW050 OVC090 68 59 73% 30.03 0.0
29 12:45 S 7 10.00 Overcast OVC100 68 59 73% 30.03 0.0
29 11:47 SW 6 10.00 Overcast OVC110 68 59 73% 30.05 0.0
29 10:47 SW 6 10.00 Mostly Cloudy BKN120 66.2 59 78% 30.05 0.0
29 09:48 SW 3 10.00 Fair CLR 59 57.2 94% 30.05 0.0
29 08:47 SW 2 10.00 Fair CLR 55.4 55.4 100% 30.06 0.0
29 07:45 N 1 10.00 Fair CLR 53.6 53.6 100% 30.04 0.0
29 06:45 NW 2 10.00 Fair CLR 53.6 53.6 100% 30.05 0.0
29 05:58 N 6 6.00 Fog/Mist CLR 53.6 53.6 100% 30.05 0.0
29 05:38 NW 3 1.50 Fog/Mist CLR 55.4 55.4 100% 30.05 0.0
29 05:18 NW 2 0.25 Fog VV002 53.6 53.6 100% 30.04 0.0
29 04:58 SW 3 0.50 Fog VV005 55.4 55.4 100% 30.04 0.0
29 04:38 SW 3 0.50 Fog BKN001 55.4 55.4 100% 30.04 0.0
29 04:18 S 3 9.00 Partly Cloudy SCT001 57.2 57.2 100% 30.04 0.0
29 03:58 W 1 6.00 Fog/Mist FEW001 55.4 55.4 100% 30.04 0.0
29 03:38 W 2 0.25 Fog VV002 57.2 57.2 100% 30.04 0.0
29 03:18 SW 2 0.15 Fog VV000 57.2 57.2 100% 30.04 0.0
29 02:58 NW 2 0.15 Fog VV000 57.2 57.2 100% 30.04 0.0
29 02:38 W 1 0.15 Fog VV000 57.2 57.2 100% 30.04 0.0
29 02:18 W 3 0.15 Fog VV000 57.2 57.2 100% 30.05 0.0
29 01:58 NW 2 0.15 Fog VV000 57.2 57.2 100% 30.05 0.0
29 01:38 NW 3 0.25 Fog VV002 57.2 57.2 100% 30.05 0.0
29 01:18 NW 2 0.25 Fog BKN002 57.2 57.2 100% 30.06 0.0
29 00:58 NW 1 6.00 Fog/Mist BKN002 57.2 55.4 94% 30.06 0.0
29 00:38 Vrbl 1 10.00 Mostly Cloudy BKN002 BKN070 57.2 55.4 94% 30.06 0.0
29 00:18 SE 2 10.00 A Few Clouds FEW002 FEW017 FEW070 60.8 57.2 88% 30.06 0.0
28 23:58 SE 3 10.00 Partly Cloudy SCT019 60.8 57.2 88% 30.06 0.0
28 23:38 E 3 10.00 Partly Cloudy SCT019 SCT080 60.8 57.2 88% 30.07 0.0
28 23:18 E 6 10.00 Partly Cloudy SCT023 SCT080 60.8 55.4 83% 30.07 0.0
28 22:58 E 7 10.00 A Few Clouds FEW025 60.8 55.4 83% 30.07 0.0
28 22:38 E 5 10.00 Fair CLR 60.8 55.4 83% 30.08 0.0
28 22:18 E 6 10.00 A Few Clouds FEW026 62.6 55.4 77% 30.08 0.0
28 21:45 E 6 10.00 Fair CLR 62.6 55.4 77% 30.08 0.0
28 20:45 NE 7 10.00 Fair CLR 64.4 55.4 73% 30.08 0.0
28 19:45 NE 8 10.00 Fair CLR 66.2 55.4 68% 30.08 0.0
28 18:45 NE 10 10.00 Fair CLR 68 55.4 64% 30.09 0.0
28 17:45 NE 12 10.00 Partly Cloudy SCT075 SCT090 69.8 55.4 60% 30.09 0.0
28 16:46 NE 13 10.00 A Few Clouds FEW070 FEW085 69.8 55.4 60% 30.09 0.0
28 15:45 N 16 10.00 Mostly Cloudy BKN055 BKN080 69.8 57.2 64% 30.09 0.0
28 14:46 NW 9 10.00 Mostly Cloudy SCT050 BKN070 73.4 51.8 47% 30.1 0.0
28 13:45 SW 9 10.00 Overcast SCT050 BKN060 OVC080 69.8 53.6 57% 30.13 0.0
28 12:46 SW 9 10.00 Mostly Cloudy FEW035 BKN070 71.6 55.4 57% 30.14 0.0
28 11:48 SW 12 10.00 Partly Cloudy SCT070 68 55.4 64% 30.16 0.0
Date Time (edt) Wind (mph) Vis. (mi.) Weather Sky Cond. Air Dwpt Max. Min. Relative Humidity Wind Chill (°F) Heat Index (°F) altimeter (in) sea level (mb) 1 hr 3 hr 6 hr
6 hour
Temperature (ºF) Pressure Precipitation (in)